Location: Round Knob
(37.2473°N, 88.7376°W)
Time: 11:39:58
(UTC+00:00)

NOAA 12 - Pass Details

Date: 29 October 2020
Orbit: 795 x 815 km, 98.5° (Epoch: 04 December)

Event Time Altitude Azimuth Distance (km) Brightness Sun altitude
Rises 23:21:35 0° 163° (SSE) 3,305 7.3 -5.0°
Reaches altitude 10° 23:23:54 10° 162° (SSE) 2,381 6.5 -5.5°
Maximum altitude 23:29:10 82° 75° (ENE) 823 4.1 -6.5°
Drops below altitude 10° 23:34:30 10° 349° (N) 2,407 6.6 -7.5°
Sets 23:36:52 0° 349° (NNW) 3,345 7.3 -8.0°
